Chadron, NE

6:29 AM MDT on May 27, 2017 (GMT -0600)
Chadron Municipal

Weather History for KCDR - February, 2013

Change the Weather History Date:

Friday, February 22, 2013

  Actual Average Record
Temperature  
Mean Temperature 30 °F 29 °F  
Max Temperature 41 °F 44 °F 72 °F (1982)
Min Temperature 19 °F 14 °F -7 °F (1993)
Degree Days  
Heating Degree Days 35 36  
Month to date heating degree days 756 844  
Since 1 July heating degree days 4694 5043  
Cooling Degree Days 0 0  
Month to date cooling degree days 0 0  
Year to date cooling degree days 0 0  
Moisture  
Dew Point 19 °F    
Average Humidity 66    
Maximum Humidity 92    
Minimum Humidity 40    
Precipitation  
Precipitation T in 0.03 in 0.41 in (2012)
Month to date precipitation 0.13 0.44  
Year to date precipitation 0.61 0.80  
Sea Level Pressure  
Sea Level Pressure 29.98 in    
Wind  
Wind Speed 6 mph (West)    
Max Wind Speed 18 mph    
Max Gust Speed 24 mph    
Visibility 7 miles    
Events Snow    
T = Trace of Precipitation, MM = Missing Value Source: NWS Daily Summary

Daily Weather History Graph

Daily Weather History Graph

Search for Another Location

Airport or City:

Trip Planner

Search our weather history database for the weather conditions in past years. The results will help you decide how hot, cold, wet, or windy it might be!

Date:

Astronomy

Feb. 22, 2013 Rise Set
Actual Time 6:38 AM MST 5:33 PM MST
Civil Twilight 6:10 AM MST 6:02 PM MST
Nautical Twilight 5:37 AM MST 6:35 PM MST
Astronomical Twilight 5:04 AM MST 7:07 PM MST
Moon 2:44 PM MST (2/22) 4:28 AM MST (2/22)
Length of Visible Light 11h 51m
Length of Day
10h 54m
Waxing Gibbous, 90% of the Moon is Illuminated
Feb 22
Waxing Gibbous
Feb 25
Full
Mar 4
Last Quarter
Mar 11
New
Mar 19
First Quarter

Hourly Weather History & Observations

Time (MST) Temp. Windchill Dew Point Humidity Pressure Visibility Wind Dir Wind Speed Gust Speed Precip Events Conditions
12:10 AM 19.4 °F - 17.6 °F 93% 29.90 in 1.8 mi Calm Calm - 0.00 in Snow Light Snow
12:26 AM 19.4 °F - 17.6 °F 93% 29.90 in 2.5 mi Calm Calm - 0.00 in Snow Light Snow
12:35 AM 19.4 °F - 15.8 °F 86% 29.90 in 4.0 mi Calm Calm - 0.00 in   Overcast
12:53 AM 19.0 °F - 17.1 °F 92% 30.04 in 4.0 mi Calm Calm - 0.00 in   Overcast
1:13 AM 19.4 °F - 17.6 °F 93% 29.89 in 6.0 mi Calm Calm - N/A   Overcast
1:53 AM 19.0 °F - 17.1 °F 92% 30.04 in 6.0 mi Calm Calm - N/A   Overcast
2:53 AM 19.0 °F - 17.1 °F 92% 30.03 in 5.0 mi Calm Calm - N/A   Overcast
3:53 AM 19.0 °F 13.9 °F 16.0 °F 88% 30.04 in 5.0 mi WSW 3.5 mph - 0.00 in   Overcast
4:53 AM 21.0 °F 16.2 °F 17.1 °F 85% 30.04 in 7.0 mi NNE 3.5 mph - N/A   Overcast
5:53 AM 19.9 °F - 17.1 °F 89% 30.05 in 8.0 mi Calm Calm - N/A   Overcast
6:42 AM 19.4 °F 11.5 °F 17.6 °F 93% 29.90 in 8.0 mi WSW 5.8 mph - N/A   Overcast
6:53 AM 19.9 °F 12.1 °F 18.0 °F 92% 30.06 in 6.0 mi SW 5.8 mph - N/A   Overcast
7:53 AM 21.9 °F - 18.0 °F 85% 30.08 in 7.0 mi Calm Calm - N/A   Overcast
8:16 AM 23.0 °F - 17.6 °F 80% 29.93 in 6.0 mi Calm Calm - N/A   Haze
8:25 AM 23.0 °F - 17.6 °F 80% 29.93 in 6.0 mi Calm Calm - N/A   Haze
8:53 AM 23.0 °F - 19.0 °F 85% 30.08 in 8.0 mi Calm Calm - N/A   Overcast
9:53 AM 26.1 °F 20.5 °F 21.0 °F 81% 30.07 in 7.0 mi West 4.6 mph - 0.01 in   Mostly Cloudy
10:31 AM 28.4 °F 23.3 °F 23.0 °F 80% 29.93 in 7.0 mi West 4.6 mph - N/A   Partly Cloudy
10:53 AM 30.0 °F 23.2 °F 24.1 °F 79% 30.06 in 7.0 mi WNW 6.9 mph - N/A   Clear
11:53 AM 34.0 °F 28.0 °F 26.1 °F 73% 30.04 in 7.0 mi WNW 6.9 mph - N/A   Partly Cloudy
12:53 PM 37.0 °F 30.4 °F 25.0 °F 62% 30.01 in 10.0 mi WNW 9.2 mph - N/A   Scattered Clouds
1:53 PM 37.9 °F 32.1 °F 21.9 °F 53% 29.98 in 10.0 mi WNW 8.1 mph 17.3 mph N/A   Partly Cloudy
2:53 PM 39.9 °F 31.4 °F 17.1 °F 40% 29.96 in 10.0 mi WNW 16.1 mph - N/A   Clear
3:53 PM 39.0 °F 31.4 °F 19.0 °F 45% 29.96 in 10.0 mi NW 12.7 mph - N/A   Mostly Cloudy
4:53 PM 37.0 °F 31.0 °F 19.0 °F 48% 29.95 in 10.0 mi WNW 8.1 mph - N/A   Scattered Clouds
5:53 PM 28.9 °F 21.1 °F 21.0 °F 72% 29.97 in 10.0 mi SW 8.1 mph - N/A   Clear
6:53 PM 27.0 °F 23.0 °F 21.0 °F 78% 29.97 in 10.0 mi WSW 3.5 mph - N/A   Clear
7:53 PM 25.0 °F 17.1 °F 19.9 °F 81% 29.97 in 10.0 mi SW 6.9 mph - N/A   Scattered Clouds
8:53 PM 21.9 °F 12.5 °F 19.0 °F 89% 29.96 in 10.0 mi WSW 8.1 mph - N/A   Clear
9:53 PM 21.0 °F 13.4 °F 17.1 °F 85% 29.94 in 10.0 mi SW 5.8 mph - N/A   Clear
10:53 PM 19.9 °F 13.4 °F 16.0 °F 85% 29.92 in 4.0 mi SW 4.6 mph - N/A   Clear
11:53 PM 19.9 °F 9.3 °F 16.0 °F 85% 29.89 in 10.0 mi WSW 9.2 mph - N/A   Clear